Location: Ariel
(45.9570°N, 122.5700°W)
Time: 11:18:37
(UTC-07:00)

Vanguard 3 - Pass Details

Date: 01 September 2019
Orbit: 508 x 3262 km, 33.3° (Epoch: 13 October)

Event Time Altitude Azimuth Distance (km) Brightness Sun altitude
Rises 11:51:52 0° 193° (SSW) 7,201 12.4 48.6°
Reaches altitude 10° 11:59:50 10° 176° (S) 5,984 12.4 49.3°
Maximum altitude 12:08:58 16° 146° (SE) 4,987 12.2 50.0°
Drops below altitude 10° 12:16:35 10° 114° (ESE) 4,910 11.7 50.5°
Sets 12:21:52 0° 95° (E) 5,398 11.6 50.8°
